TimeCST,TemperatureF,Dew PointF,Humidity,Sea Level PressureIn,VisibilityMPH,Wind Direction,Wind SpeedMPH,Gust SpeedMPH,PrecipitationIn,Events,Conditions,WindDirDegrees,DateUTC
12:15 AM,28.4,23.0,80,29.98,10.0,West,8.1,-,N/A,,Unknown,280,2012-12-04 06:15:00
12:35 AM,24.8,23.0,93,29.99,10.0,NNE,3.5,-,N/A,,Unknown,30,2012-12-04 06:35:00
12:55 AM,24.8,23.0,93,29.99,10.0,NNW,8.1,-,N/A,,Unknown,330,2012-12-04 06:55:00
1:15 AM,24.8,23.0,93,30.00,10.0,NNW,8.1,-,N/A,,Unknown,330,2012-12-04 07:15:00
1:35 AM,24.8,21.2,86,30.01,10.0,NW,5.8,-,N/A,,Unknown,310,2012-12-04 07:35:00
1:55 AM,23.0,21.2,93,30.02,10.0,North,5.8,-,N/A,,Unknown,360,2012-12-04 07:55:00
2:15 AM,23.0,19.4,86,30.02,10.0,NNW,5.8,-,N/A,,Unknown,330,2012-12-04 08:15:00
2:55 AM,19.4,19.4,100,30.05,10.0,NNW,5.8,-,N/A,,Clear,330,2012-12-04 08:55:00
3:15 AM,19.4,17.6,93,30.07,10.0,NW,3.5,-,N/A,,Clear,320,2012-12-04 09:15:00
3:35 AM,19.4,17.6,93,30.07,10.0,NW,3.5,-,N/A,,Clear,310,2012-12-04 09:35:00
3:55 AM,19.4,17.6,93,30.08,10.0,WNW,3.5,-,N/A,,Clear,290,2012-12-04 09:55:00
4:15 AM,19.4,17.6,93,30.07,10.0,West,5.8,-,N/A,,Unknown,270,2012-12-04 10:15:00
4:35 AM,17.6,15.8,93,30.09,10.0,Calm,Calm,-,N/A,,Unknown,0,2012-12-04 10:35:00
4:55 AM,17.6,15.8,93,30.10,10.0,Calm,Calm,-,N/A,,Unknown,0,2012-12-04 10:55:00
5:15 AM,17.6,15.8,93,30.11,10.0,WNW,4.6,-,N/A,,Unknown,290,2012-12-04 11:15:00
5:35 AM,17.6,15.8,93,30.11,10.0,NNW,3.5,-,N/A,,Unknown,330,2012-12-04 11:35:00
5:55 AM,17.6,14.0,86,30.12,10.0,NW,4.6,-,N/A,,Clear,310,2012-12-04 11:55:00
6:15 AM,15.8,14.0,93,30.14,10.0,WNW,3.5,-,N/A,,Clear,300,2012-12-04 12:15:00
6:35 AM,17.6,14.0,86,30.15,10.0,NW,12.7,-,N/A,,Clear,310,2012-12-04 12:35:00
6:55 AM,17.6,14.0,86,30.16,10.0,NW,12.7,-,N/A,,Unknown,310,2012-12-04 12:55:00
7:15 AM,17.6,14.0,86,30.18,10.0,NW,11.5,-,N/A,,Unknown,320,2012-12-04 13:15:00
7:35 AM,17.6,12.2,79,30.19,10.0,NW,10.4,-,N/A,,Unknown,320,2012-12-04 13:35:00
7:55 AM,15.8,12.2,86,30.19,10.0,NW,10.4,-,N/A,,Unknown,320,2012-12-04 13:55:00
8:15 AM,15.8,12.2,86,30.21,10.0,NW,10.4,-,N/A,,Unknown,310,2012-12-04 14:15:00
8:35 AM,15.8,12.2,86,30.23,10.0,NW,6.9,-,N/A,,Clear,310,2012-12-04 14:35:00
8:55 AM,15.8,12.2,86,30.23,10.0,NW,8.1,-,N/A,,Clear,310,2012-12-04 14:55:00
9:15 AM,17.6,14.0,86,30.23,10.0,NNW,12.7,16.1,N/A,,Clear,330,2012-12-04 15:15:00
9:35 AM,17.6,14.0,86,30.24,10.0,NW,13.8,-,N/A,,Unknown,320,2012-12-04 15:35:00
9:55 AM,19.4,14.0,80,30.25,10.0,NW,12.7,-,N/A,,Unknown,320,2012-12-04 15:55:00
10:15 AM,19.4,14.0,80,30.25,10.0,NW,12.7,-,N/A,,Unknown,320,2012-12-04 16:15:00
10:35 AM,19.4,12.2,74,30.26,10.0,NNW,11.5,-,N/A,,Unknown,330,2012-12-04 16:35:00
10:55 AM,19.4,14.0,80,30.27,10.0,NNW,12.7,-,N/A,,Unknown,330,2012-12-04 16:55:00
11:15 AM,21.2,12.2,68,30.27,10.0,NNW,10.4,-,N/A,,Clear,340,2012-12-04 17:15:00
11:35 AM,21.2,12.2,68,30.27,10.0,NNW,9.2,16.1,N/A,,Clear,330,2012-12-04 17:35:00
12:15 PM,23.0,12.2,63,30.27,10.0,NW,8.1,-,N/A,,Clear,320,2012-12-04 18:15:00
12:35 PM,23.0,10.4,59,30.27,10.0,NW,8.1,-,N/A,,Unknown,320,2012-12-04 18:35:00
12:55 PM,23.0,10.4,59,30.27,10.0,NNW,6.9,-,N/A,,Unknown,330,2012-12-04 18:55:00
1:15 PM,24.8,10.4,54,30.28,10.0,North,9.2,-,N/A,,Unknown,360,2012-12-04 19:15:00
1:35 PM,24.8,10.4,54,30.27,10.0,NW,9.2,-,N/A,,Unknown,320,2012-12-04 19:35:00
1:55 PM,24.8,10.4,54,30.27,10.0,North,6.9,-,N/A,,Unknown,360,2012-12-04 19:55:00
2:15 PM,24.8,10.4,54,30.27,10.0,North,5.8,-,N/A,,Unknown,350,2012-12-04 20:15:00
2:35 PM,24.8,10.4,54,30.27,10.0,North,5.8,-,N/A,,Unknown,350,2012-12-04 20:35:00
2:55 PM,24.8,10.4,54,30.27,10.0,NNE,9.2,-,N/A,,Unknown,20,2012-12-04 20:55:00
3:15 PM,24.8,10.4,54,30.27,10.0,North,6.9,-,N/A,,Unknown,350,2012-12-04 21:15:00
3:35 PM,24.8,10.4,54,30.28,10.0,NNE,8.1,-,N/A,,Unknown,20,2012-12-04 21:35:00
3:55 PM,24.8,10.4,54,30.28,10.0,NNE,8.1,-,N/A,,Unknown,30,2012-12-04 21:55:00
4:15 PM,23.0,10.4,59,30.29,10.0,NNE,6.9,-,N/A,,Unknown,30,2012-12-04 22:15:00
4:35 PM,23.0,10.4,59,30.28,7.0,NE,6.9,-,N/A,,Unknown,50,2012-12-04 22:35:00
4:55 PM,19.4,8.6,63,30.29,3.0,NE,4.6,-,N/A,,Haze,50,2012-12-04 22:55:00
5:15 PM,19.4,8.6,63,30.29,7.0,Calm,Calm,-,N/A,,Clear,0,2012-12-04 23:15:00
5:35 PM,19.4,10.4,68,30.30,7.0,Calm,Calm,-,N/A,,Clear,0,2012-12-04 23:35:00
5:55 PM,19.4,10.4,68,30.29,9.0,ENE,3.5,-,N/A,,Clear,70,2012-12-04 23:55:00
6:15 PM,19.4,10.4,68,30.28,9.0,ENE,6.9,-,N/A,,Unknown,70,2012-12-05 00:15:00
6:35 PM,17.6,10.4,73,30.29,10.0,East,5.8,-,N/A,,Unknown,80,2012-12-05 00:35:00
6:55 PM,17.6,10.4,73,30.29,10.0,East,8.1,-,N/A,,Unknown,80,2012-12-05 00:55:00
7:15 PM,15.8,10.4,79,30.29,10.0,ENE,6.9,-,N/A,,Unknown,70,2012-12-05 01:15:00
7:35 PM,15.8,10.4,79,30.29,10.0,East,8.1,-,N/A,,Unknown,90,2012-12-05 01:35:00
7:55 PM,15.8,10.4,79,30.30,10.0,East,9.2,-,N/A,,Unknown,90,2012-12-05 01:55:00
8:15 PM,15.8,10.4,79,30.31,10.0,East,8.1,-,N/A,,Clear,90,2012-12-05 02:15:00
8:35 PM,15.8,10.4,79,30.30,10.0,East,10.4,-,N/A,,Clear,90,2012-12-05 02:35:00
8:55 PM,17.6,10.4,73,30.32,10.0,East,10.4,-,N/A,,Clear,90,2012-12-05 02:55:00
9:15 PM,17.6,10.4,73,30.31,10.0,East,11.5,-,N/A,,Unknown,90,2012-12-05 03:15:00
9:35 PM,15.8,10.4,79,30.31,10.0,East,12.7,-,N/A,,Unknown,90,2012-12-05 03:35:00
9:55 PM,15.8,10.4,79,30.32,10.0,East,11.5,-,N/A,,Unknown,90,2012-12-05 03:55:00
10:15 PM,15.8,12.2,86,30.32,10.0,East,10.4,-,N/A,,Unknown,80,2012-12-05 04:15:00
10:35 PM,15.8,12.2,86,30.30,10.0,East,12.7,-,N/A,,Clear,90,2012-12-05 04:35:00
10:55 PM,17.6,12.2,79,30.29,10.0,ESE,11.5,-,N/A,,Clear,110,2012-12-05 04:55:00
11:15 PM,17.6,12.2,79,30.29,10.0,East,12.7,-,N/A,,Clear,100,2012-12-05 05:15:00
11:35 PM,17.6,14.0,86,30.28,10.0,East,11.5,-,N/A,,Unknown,90,2012-12-05 05:35:00
11:55 PM,15.8,14.0,93,30.27,10.0,East,13.8,-,N/A,,Unknown,90,2012-12-05 05:55:00